THOR ABLESTAR DEB, 478

Orbit data source: Space-Track

THOR ABLESTAR DEB, 478 is space debris in LEO originally from a launch on Thu, 29 Jun 1961 UTC launched from the Air Force Eastern Test Range (AFETR). Debris objects in space refer to the collection of defunct objects orbiting the Earth. Examples of debris include non-operational satellites, rocket bodies, and fragments generated from explosions, collisions, or faulty payload assembly.

Loading next visibility...
Identifier
478, 1961-015FQ
Orbit
LEO
Country
Flag of USUS
Related business
Manufacturer
Unknown
Mission
Spacecraft
Bus & Motor
Unknown
Mass
Unknown
Launch date (UTC)
1961-06-29 (65 years ago)
Launch vehicle
Unknown
Launch site
Air Force Eastern Test Range (AFETR)
Object type
Payload
Rocket body
Debris
Shape & HBR
Unknown shape, 0.1 m
Radar Cross Section
Small (<0.1 m²)

Expand to show TLE details & history
Last TLE update: 13 hours ago

TLE from 13 hours ago
0 THOR ABLESTAR DEB
1 00478U 61015FQ  26095.19363349  .00022527  00000-0  20422-2 0  9992
2 00478  66.0603  22.9820 0029794 337.3456  22.6353 14.94995459373279
Epoch: 2026-04-05T04:38Z
TLE epoch observation values (Epoch: 2026-04-05T04:38:49.933Z)
Latitude
0.00005°
Longitude
119.7714°
Altitude
565.371 km
Speed
7.589 km/s
True Right ascension
01h 31m 55s
True Declination
0° 00' 00"
Sunlit
Object was in daylight at epoch
Visualization orbit readout
Latitude
Unknown
Longitude
Unknown
Altitude
Unknown
Speed
Unknown
Apparent Right ascension
Unknown
Apparent Declination
Unknown
Sunlit
N/A
Visualization observer readout
Local Sidereal Time
23:14:02
Azimuth
Unknown
Elevation
Unknown
Doppler factor
Unknown
Orbital elements
Apogee altitude
601.524 km
Perigee altitude
560.057 km
Semi-major axis
6,958.927 km
Eccentricity
0.00298
Inclination
66.0603°
RAAN
22.982°
Arg. of periapsis
337.3456°
True anomaly
22.76715°
Mean anomaly
22.6353°
Eccentric anomaly
22.70118°
Mean motion
3.73878 °/min
Orbital period
96.29 mins
BSTAR
0.0020422
Loading maneuver chart data...
Computing Atmospheric mass density...

Documentation

Showing up to 5 results
|